TimeCDT,TemperatureF,Dew PointF,Humidity,Sea Level PressureIn,VisibilityMPH,Wind Direction,Wind SpeedMPH,Gust SpeedMPH,PrecipitationIn,Events,Conditions,WindDirDegrees,DateUTC
12:55 AM,52.0,46.0,80,29.96,10.0,Calm,Calm,-,N/A,,Clear,0,2012-10-19 05:55:00
1:55 AM,50.0,44.1,80,29.97,10.0,Calm,Calm,-,N/A,,Clear,0,2012-10-19 06:55:00
2:55 AM,51.1,44.1,77,29.96,10.0,Calm,Calm,-,N/A,,Clear,0,2012-10-19 07:55:00
3:55 AM,50.0,44.1,80,29.96,10.0,Calm,Calm,-,N/A,,Clear,0,2012-10-19 08:55:00
4:55 AM,51.1,45.0,80,29.96,10.0,Calm,Calm,-,N/A,,Clear,0,2012-10-19 09:55:00
5:55 AM,50.0,46.0,86,29.96,10.0,Calm,Calm,-,N/A,,Clear,0,2012-10-19 10:55:00
6:55 AM,48.9,45.0,86,29.97,10.0,Calm,Calm,-,N/A,,Clear,0,2012-10-19 11:55:00
7:55 AM,50.0,46.9,89,29.97,10.0,Calm,Calm,-,N/A,,Clear,0,2012-10-19 12:55:00
8:55 AM,59.0,50.0,72,29.99,10.0,Calm,Calm,-,N/A,,Clear,0,2012-10-19 13:55:00
9:55 AM,68.0,35.1,30,30.00,10.0,Variable,5.8,-,N/A,,Clear,0,2012-10-19 14:55:00
10:55 AM,72.0,37.9,29,30.00,10.0,WNW,11.5,-,N/A,,Clear,300,2012-10-19 15:55:00
11:55 AM,75.0,35.1,23,30.00,10.0,WNW,10.4,-,N/A,,Clear,300,2012-10-19 16:55:00
12:55 PM,75.0,32.0,21,29.98,10.0,NW,11.5,-,N/A,,Clear,310,2012-10-19 17:55:00
1:55 PM,75.9,33.1,21,29.95,10.0,WNW,11.5,-,N/A,,Clear,290,2012-10-19 18:55:00
2:55 PM,77.0,33.1,20,29.93,10.0,WNW,12.7,19.6,N/A,,Clear,300,2012-10-19 19:55:00
3:55 PM,78.1,32.0,19,29.91,10.0,WNW,11.5,-,N/A,,Clear,290,2012-10-19 20:55:00
4:55 PM,77.0,35.1,22,29.91,10.0,WNW,12.7,18.4,N/A,,Clear,300,2012-10-19 21:55:00
5:55 PM,75.0,37.0,25,29.91,10.0,WNW,9.2,-,N/A,,Clear,290,2012-10-19 22:55:00
6:55 PM,70.0,39.0,32,29.91,10.0,West,4.6,-,N/A,,Clear,280,2012-10-19 23:55:00
7:55 PM,64.0,44.1,48,29.93,10.0,Calm,Calm,-,N/A,,Clear,0,2012-10-20 00:55:00
8:55 PM,59.0,46.0,62,29.94,10.0,Calm,Calm,-,N/A,,Clear,0,2012-10-20 01:55:00
9:55 PM,55.9,45.0,67,29.94,10.0,Calm,Calm,-,N/A,,Clear,0,2012-10-20 02:55:00
10:55 PM,55.9,46.9,72,29.94,10.0,Calm,Calm,-,N/A,,Clear,0,2012-10-20 03:55:00
11:55 PM,55.9,46.0,69,29.95,10.0,Calm,Calm,-,N/A,,Clear,0,2012-10-20 04:55:00